Time,TemperatureF,DewpointF,PressureIn,WindDirection,WindDirectionDegrees,WindSpeedMPH,WindSpeedGustMPH,Humidity,HourlyPrecipIn,Conditions,Clouds,dailyrainin,SoftwareType,DateUTC
2013-02-25 00:00:00,23.9,20.9,30.36,NW,306,3.0,5.0,88,0.00,,---,0.00,VWS V14.01,2013-02-25 06:00:00,
2013-02-25 00:05:00,23.9,20.9,30.36,NW,314,4.0,6.0,88,0.00,,---,0.00,VWS V14.01,2013-02-25 06:05:00,
2013-02-25 00:10:00,23.9,20.9,30.35,WNW,301,5.0,5.0,88,0.00,,---,0.00,VWS V14.01,2013-02-25 06:10:00,
2013-02-25 00:15:00,23.8,20.8,30.35,NW,325,3.0,3.0,88,0.00,,---,0.00,VWS V14.01,2013-02-25 06:15:00,
2013-02-25 00:20:00,23.8,20.8,30.35,NW,308,2.0,2.0,88,0.00,,---,0.00,VWS V14.01,2013-02-25 06:20:00,
2013-02-25 00:25:00,23.8,20.8,30.35,NW,308,2.0,3.0,88,0.00,,---,0.00,VWS V14.01,2013-02-25 06:25:00,
2013-02-25 00:30:00,23.7,20.7,30.35,NW,321,2.0,4.0,88,0.00,,---,0.00,VWS V14.01,2013-02-25 06:30:00,
2013-02-25 00:35:00,23.7,20.7,30.35,NW,309,2.0,2.0,88,0.00,,---,0.00,VWS V14.01,2013-02-25 06:35:00,
2013-02-25 00:40:00,23.6,20.6,30.35,WNW,298,0.0,0.0,88,0.00,,---,0.00,VWS V14.01,2013-02-25 06:40:00,
2013-02-25 00:45:00,23.6,20.6,30.35,North,350,2.0,7.0,88,0.00,,---,0.00,VWS V14.01,2013-02-25 06:45:00,
2013-02-25 00:50:00,23.6,20.6,30.35,North,360,0.0,4.0,88,0.00,,---,0.00,VWS V14.01,2013-02-25 06:50:00,
2013-02-25 00:55:00,23.6,20.6,30.35,NNW,348,0.0,2.0,88,0.00,,---,0.00,VWS V14.01,2013-02-25 06:55:00,
2013-02-25 01:00:00,23.6,20.6,30.35,WNW,295,2.0,3.0,88,0.00,,---,0.00,VWS V14.01,2013-02-25 07:00:00,
2013-02-25 01:05:00,23.6,20.6,30.35,NNE,24,1.0,1.0,88,0.00,,---,0.00,VWS V14.01,2013-02-25 07:05:00,
2013-02-25 01:10:00,23.6,20.6,30.35,North,355,0.0,3.0,88,0.00,,---,0.00,VWS V14.01,2013-02-25 07:10:00,
2013-02-25 01:15:00,23.6,20.6,30.35,NNW,341,1.0,2.0,88,0.00,,---,0.00,VWS V14.01,2013-02-25 07:15:00,
2013-02-25 01:20:00,23.6,20.8,30.36,NNW,342,0.0,4.0,89,0.00,,---,0.00,VWS V14.01,2013-02-25 07:20:00,
2013-02-25 01:25:00,23.6,20.8,30.36,NNW,342,0.0,1.0,89,0.00,,---,0.00,VWS V14.01,2013-02-25 07:25:00,
2013-02-25 01:30:00,23.6,20.8,30.37,NNW,342,0.0,0.0,89,0.00,,---,0.00,VWS V14.01,2013-02-25 07:30:00,
2013-02-25 01:35:00,23.6,20.8,30.37,NNW,342,1.0,2.0,89,0.00,,---,0.00,VWS V14.01,2013-02-25 07:35:00,
2013-02-25 01:40:00,23.6,20.8,30.37,NNW,342,0.0,0.0,89,0.00,,---,0.00,VWS V14.01,2013-02-25 07:40:00,
2013-02-25 01:45:00,23.7,20.9,30.37,NNW,342,0.0,2.0,89,0.00,,---,0.00,VWS V14.01,2013-02-25 07:45:00,
2013-02-25 01:50:00,23.7,20.9,30.36,NNW,342,0.0,0.0,89,0.00,,---,0.00,VWS V14.01,2013-02-25 07:50:00,
2013-02-25 01:55:00,23.7,20.9,30.36,NNW,342,0.0,1.0,89,0.00,,---,0.00,VWS V14.01,2013-02-25 07:55:00,
2013-02-25 02:00:00,23.7,20.9,30.35,NNW,342,0.0,1.0,89,0.00,,---,0.00,VWS V14.01,2013-02-25 08:00:00,
2013-02-25 02:05:00,23.7,20.9,30.35,NNW,346,1.0,4.0,89,0.00,,---,0.00,VWS V14.01,2013-02-25 08:05:00,
2013-02-25 02:10:00,23.6,20.8,30.34,NNW,336,0.0,1.0,89,0.00,,---,0.00,VWS V14.01,2013-02-25 08:10:00,
2013-02-25 02:15:00,23.6,20.8,30.34,NW,309,0.0,3.0,89,0.00,,---,0.00,VWS V14.01,2013-02-25 08:15:00,
2013-02-25 02:20:00,23.6,20.8,30.35,NW,320,0.0,2.0,89,0.00,,---,0.00,VWS V14.01,2013-02-25 08:20:00,
2013-02-25 02:25:00,23.6,20.8,30.34,NW,306,0.0,5.0,89,0.00,,---,0.00,VWS V14.01,2013-02-25 08:25:00,
2013-02-25 02:30:00,23.6,20.8,30.35,NW,306,0.0,1.0,89,0.00,,---,0.00,VWS V14.01,2013-02-25 08:30:00,
2013-02-25 02:35:00,23.6,20.8,30.35,WNW,296,2.0,3.0,89,0.00,,---,0.00,VWS V14.01,2013-02-25 08:35:00,
2013-02-25 02:40:00,23.7,20.9,30.34,WNW,292,3.0,3.0,89,0.00,,---,0.00,VWS V14.01,2013-02-25 08:40:00,
2013-02-25 02:45:00,23.6,20.8,30.34,NW,309,0.0,2.0,89,0.00,,---,0.00,VWS V14.01,2013-02-25 08:45:00,
2013-02-25 02:50:00,23.6,20.8,30.35,NW,320,4.0,6.0,89,0.00,,---,0.00,VWS V14.01,2013-02-25 08:50:00,
2013-02-25 02:55:00,23.6,20.8,30.35,NW,325,3.0,6.0,89,0.00,,---,0.00,VWS V14.01,2013-02-25 08:55:00,
2013-02-25 03:00:00,23.6,20.8,30.34,NNW,340,2.0,4.0,89,0.00,,---,0.00,VWS V14.01,2013-02-25 09:00:00,
2013-02-25 03:05:00,23.5,20.7,30.33,WNW,302,2.0,4.0,89,0.00,,---,0.00,VWS V14.01,2013-02-25 09:05:00,
2013-02-25 03:10:00,23.4,20.6,30.34,NW,322,0.0,2.0,89,0.00,,---,0.00,VWS V14.01,2013-02-25 09:10:00,
2013-02-25 03:15:00,23.3,20.5,30.33,NW,306,4.0,5.0,89,0.00,,---,0.00,VWS V14.01,2013-02-25 09:15:00,
2013-02-25 03:20:00,23.1,20.4,30.34,NNW,329,3.0,5.0,89,0.00,,---,0.00,VWS V14.01,2013-02-25 09:20:00,
2013-02-25 03:25:00,23.0,20.2,30.35,WNW,292,5.0,6.0,89,0.00,,---,0.00,VWS V14.01,2013-02-25 09:25:00,
2013-02-25 03:30:00,22.8,20.0,30.35,WNW,302,4.0,5.0,89,0.00,,---,0.00,VWS V14.01,2013-02-25 09:30:00,
2013-02-25 03:35:00,22.6,19.9,30.37,WNW,296,3.0,3.0,89,0.00,,---,0.00,VWS V14.01,2013-02-25 09:35:00,
2013-02-25 03:40:00,22.4,19.7,30.38,WNW,296,1.0,3.0,89,0.00,,---,0.00,VWS V14.01,2013-02-25 09:40:00,
2013-02-25 03:45:00,22.4,19.7,30.38,WNW,296,0.0,1.0,89,0.00,,---,0.00,VWS V14.01,2013-02-25 09:45:00,
2013-02-25 03:50:00,22.4,19.7,30.38,WNW,296,1.0,3.0,89,0.00,,---,0.00,VWS V14.01,2013-02-25 09:50:00,
2013-02-25 03:55:00,22.5,19.8,30.37,WNW,296,1.0,1.0,89,0.00,,---,0.00,VWS V14.01,2013-02-25 09:55:00,
2013-02-25 04:00:00,22.5,19.8,30.37,WNW,296,0.0,2.0,89,0.00,,---,0.00,VWS V14.01,2013-02-25 10:00:00,
2013-02-25 04:05:00,22.4,19.7,30.36,NW,317,3.0,3.0,89,0.00,,---,0.00,VWS V14.01,2013-02-25 10:05:00,
2013-02-25 04:10:00,22.5,19.8,30.35,NW,309,0.0,1.0,89,0.00,,---,0.00,VWS V14.01,2013-02-25 10:10:00,
2013-02-25 04:15:00,22.5,19.8,30.35,NW,325,2.0,3.0,89,0.00,,---,0.00,VWS V14.01,2013-02-25 10:15:00,
2013-02-25 04:20:00,22.5,19.8,30.35,NNW,331,2.0,3.0,89,0.00,,---,0.00,VWS V14.01,2013-02-25 10:20:00,
2013-02-25 04:25:00,22.5,19.8,30.35,WNW,292,3.0,3.0,89,0.00,,---,0.00,VWS V14.01,2013-02-25 10:25:00,
2013-02-25 04:30:00,22.5,19.8,30.35,WNW,300,3.0,4.0,89,0.00,,---,0.00,VWS V14.01,2013-02-25 10:30:00,
2013-02-25 04:35:00,22.5,19.8,30.35,WNW,303,4.0,4.0,89,0.00,,---,0.00,VWS V14.01,2013-02-25 10:35:00,
2013-02-25 04:40:00,22.5,19.8,30.34,WNW,298,3.0,4.0,89,0.00,,---,0.00,VWS V14.01,2013-02-25 10:40:00,
2013-02-25 04:45:00,22.5,20.0,30.34,NNW,333,2.0,2.0,90,0.00,,---,0.00,VWS V14.01,2013-02-25 10:45:00,
2013-02-25 04:50:00,22.5,20.0,30.34,NNE,22,0.0,2.0,90,0.00,,---,0.00,VWS V14.01,2013-02-25 10:50:00,
2013-02-25 04:55:00,22.5,20.0,30.35,NW,320,0.0,2.0,90,0.00,,---,0.00,VWS V14.01,2013-02-25 10:55:00,
2013-02-25 05:00:00,22.5,20.0,30.35,NNW,348,0.0,2.0,90,0.00,,---,0.00,VWS V14.01,2013-02-25 11:00:00,
2013-02-25 05:05:00,22.5,20.0,30.35,NW,321,2.0,2.0,90,0.00,,---,0.00,VWS V14.01,2013-02-25 11:05:00,
2013-02-25 05:10:00,22.5,20.0,30.37,NW,325,2.0,4.0,90,0.00,,---,0.00,VWS V14.01,2013-02-25 11:10:00,
2013-02-25 05:15:00,22.5,20.0,30.37,NW,304,4.0,4.0,90,0.00,,---,0.00,VWS V14.01,2013-02-25 11:15:00,
2013-02-25 05:20:00,22.5,20.0,30.37,WNW,302,0.0,2.0,90,0.00,,---,0.00,VWS V14.01,2013-02-25 11:20:00,
2013-02-25 05:25:00,22.4,19.9,30.37,NNW,333,0.0,1.0,90,0.00,,---,0.00,VWS V14.01,2013-02-25 11:25:00,
2013-02-25 05:30:00,22.4,19.9,30.36,NNE,22,0.0,1.0,90,0.00,,---,0.00,VWS V14.01,2013-02-25 11:30:00,
2013-02-25 05:35:00,22.4,19.9,30.37,NNE,22,0.0,1.0,90,0.00,,---,0.00,VWS V14.01,2013-02-25 11:35:00,
2013-02-25 05:40:00,22.4,19.9,30.36,North,10,0.0,2.0,90,0.00,,---,0.00,VWS V14.01,2013-02-25 11:40:00,
2013-02-25 05:45:00,22.3,19.8,30.36,NNE,23,0.0,1.0,90,0.00,,---,0.00,VWS V14.01,2013-02-25 11:45:00,
2013-02-25 05:50:00,22.1,19.6,30.36,NNE,23,0.0,1.0,90,0.00,,---,0.00,VWS V14.01,2013-02-25 11:50:00,
2013-02-25 05:54:00,22.0,19.5,30.36,North,355,0.0,1.0,90,0.00,,---,0.00,VWS V14.01,2013-02-25 11:54:00,
2013-02-25 05:59:00,22.0,19.5,30.37,NNW,340,2.0,2.0,90,0.00,,---,0.00,VWS V14.01,2013-02-25 11:59:00,
2013-02-25 06:04:00,22.0,19.5,30.37,NW,306,2.0,3.0,90,0.00,,---,0.00,VWS V14.01,2013-02-25 12:04:00,
2013-02-25 06:09:00,21.8,19.3,30.38,WNW,292,3.0,3.0,90,0.00,,---,0.00,VWS V14.01,2013-02-25 12:09:00,
2013-02-25 06:14:00,21.7,19.2,30.38,NW,307,2.0,3.0,90,0.00,,---,0.00,VWS V14.01,2013-02-25 12:14:00,
2013-02-25 06:19:00,21.4,18.9,30.38,WNW,300,3.0,3.0,90,0.00,,---,0.00,VWS V14.01,2013-02-25 12:19:00,
2013-02-25 06:24:00,21.2,18.7,30.39,North,5,0.0,2.0,90,0.00,,---,0.00,VWS V14.01,2013-02-25 12:24:00,
2013-02-25 06:29:00,21.0,18.5,30.39,NW,323,0.0,2.0,90,0.00,,---,0.00,VWS V14.01,2013-02-25 12:29:00,
2013-02-25 06:34:00,20.8,18.3,30.39,NW,307,0.0,2.0,90,0.00,,---,0.00,VWS V14.01,2013-02-25 12:34:00,
2013-02-25 06:40:00,20.7,18.2,30.39,North,350,3.0,3.0,90,0.00,,---,0.00,VWS V14.01,2013-02-25 12:40:00,
2013-02-25 06:45:00,20.7,18.2,30.39,North,5,0.0,1.0,90,0.00,,---,0.00,VWS V14.01,2013-02-25 12:45:00,
2013-02-25 06:50:00,20.7,18.2,30.39,NW,309,0.0,3.0,90,0.00,,---,0.00,VWS V14.01,2013-02-25 12:50:00,
2013-02-25 06:55:00,20.7,18.2,30.38,NNW,347,0.0,4.0,90,0.00,,---,0.00,VWS V14.01,2013-02-25 12:55:00,
2013-02-25 07:00:00,20.7,18.2,30.37,NNW,331,3.0,5.0,90,0.00,,---,0.00,VWS V14.01,2013-02-25 13:00:00,
2013-02-25 07:05:00,20.6,18.1,30.38,NW,325,1.0,2.0,90,0.00,,---,0.00,VWS V14.01,2013-02-25 13:05:00,
2013-02-25 07:10:00,20.4,17.9,30.38,NNW,334,0.0,0.0,90,0.00,,---,0.00,VWS V14.01,2013-02-25 13:10:00,
2013-02-25 07:15:00,20.3,17.8,30.39,North,5,0.0,1.0,90,0.00,,---,0.00,VWS V14.01,2013-02-25 13:15:00,
2013-02-25 07:20:00,20.2,17.7,30.39,North,10,0.0,1.0,90,0.00,,---,0.00,VWS V14.01,2013-02-25 13:20:00,
2013-02-25 07:25:00,19.7,17.2,30.40,NE,38,0.0,0.0,90,0.00,,---,0.00,VWS V14.01,2013-02-25 13:25:00,
2013-02-25 07:30:00,19.4,17.0,30.41,NE,38,0.0,2.0,90,0.00,,---,0.00,VWS V14.01,2013-02-25 13:30:00,
2013-02-25 07:35:00,19.3,16.9,30.41,North,5,1.0,1.0,90,0.00,,---,0.00,VWS V14.01,2013-02-25 13:35:00,
2013-02-25 07:40:00,19.4,17.0,30.41,NE,46,0.0,3.0,90,0.00,,---,0.00,VWS V14.01,2013-02-25 13:40:00,
2013-02-25 07:45:00,19.5,17.0,30.41,NNE,30,4.0,4.0,90,0.00,,---,0.00,VWS V14.01,2013-02-25 13:45:00,
2013-02-25 07:50:00,19.7,17.2,30.41,NNE,30,1.0,1.0,90,0.00,,---,0.00,VWS V14.01,2013-02-25 13:50:00,
2013-02-25 07:55:00,19.7,17.2,30.41,NE,48,2.0,4.0,90,0.00,,---,0.00,VWS V14.01,2013-02-25 13:55:00,
2013-02-25 08:00:00,19.8,17.4,30.41,NE,37,3.0,3.0,90,0.00,,---,0.00,VWS V14.01,2013-02-25 14:00:00,
2013-02-25 08:05:00,20.1,17.6,30.42,NNE,19,2.0,4.0,90,0.00,,---,0.00,VWS V14.01,2013-02-25 14:05:00,
2013-02-25 08:11:00,20.4,17.9,30.42,NNE,32,1.0,4.0,90,0.00,,---,0.00,VWS V14.01,2013-02-25 14:11:00,
2013-02-25 08:16:00,20.7,18.5,30.43,NNE,19,1.0,3.0,91,0.00,,---,0.00,VWS V14.01,2013-02-25 14:16:00,
2013-02-25 08:21:00,20.8,18.6,30.43,NNE,14,0.0,4.0,91,0.00,,---,0.00,VWS V14.01,2013-02-25 14:21:00,
2013-02-25 08:26:00,21.0,18.8,30.43,NE,40,1.0,3.0,91,0.00,,---,0.00,VWS V14.01,2013-02-25 14:26:00,
2013-02-25 08:31:00,21.1,18.9,30.43,NNE,32,2.0,4.0,91,0.00,,---,0.00,VWS V14.01,2013-02-25 14:31:00,
2013-02-25 08:36:00,21.2,19.0,30.43,NNE,26,0.0,4.0,91,0.00,,---,0.00,VWS V14.01,2013-02-25 14:36:00,
2013-02-25 08:41:00,21.4,19.2,30.43,NNE,28,3.0,5.0,91,0.00,,---,0.00,VWS V14.01,2013-02-25 14:41:00,
2013-02-25 08:46:00,21.5,19.3,30.43,NE,34,3.0,5.0,91,0.00,,---,0.00,VWS V14.01,2013-02-25 14:46:00,
2013-02-25 08:51:00,21.7,19.5,30.42,NE,45,0.0,2.0,91,0.00,,---,0.00,VWS V14.01,2013-02-25 14:51:00,
2013-02-25 08:56:00,21.9,19.7,30.43,ENE,61,6.0,6.0,91,0.00,,---,0.00,VWS V14.01,2013-02-25 14:56:00,
2013-02-25 09:00:00,21.7,19.5,30.44,NE,34,5.0,6.0,91,0.00,,---,0.00,VWS V14.01,2013-02-25 15:00:00,
2013-02-25 09:06:00,21.8,19.6,30.45,NE,38,0.0,2.0,91,0.00,,---,0.00,VWS V14.01,2013-02-25 15:06:00,
2013-02-25 09:11:00,22.0,19.8,30.45,NE,38,1.0,4.0,91,0.00,,---,0.00,VWS V14.01,2013-02-25 15:11:00,
2013-02-25 09:16:00,22.1,19.9,30.45,NE,40,0.0,0.0,91,0.00,,---,0.00,VWS V14.01,2013-02-25 15:16:00,
2013-02-25 09:21:00,22.3,20.1,30.44,NNE,24,1.0,2.0,91,0.00,,---,0.00,VWS V14.01,2013-02-25 15:21:00,
2013-02-25 09:26:00,22.6,20.4,30.43,NNE,16,2.0,2.0,91,0.00,,---,0.00,VWS V14.01,2013-02-25 15:26:00,
2013-02-25 09:31:00,22.9,20.7,30.42,NNE,23,5.0,5.0,91,0.00,,---,0.00,VWS V14.01,2013-02-25 15:31:00,
2013-02-25 09:35:00,23.1,20.9,30.42,NE,52,5.0,5.0,91,0.00,,---,0.00,VWS V14.01,2013-02-25 15:35:00,
2013-02-25 09:40:00,23.2,21.0,30.42,NNE,22,1.0,3.0,91,0.00,,---,0.00,VWS V14.01,2013-02-25 15:40:00,
2013-02-25 09:45:00,23.6,21.6,30.41,NE,53,1.0,3.0,92,0.00,,---,0.00,VWS V14.01,2013-02-25 15:45:00,
2013-02-25 09:50:00,24.1,22.1,30.41,NNE,17,0.0,3.0,92,0.00,,---,0.00,VWS V14.01,2013-02-25 15:50:00,
2013-02-25 09:55:00,24.7,22.5,30.40,NNW,341,4.0,5.0,91,0.00,,---,0.00,VWS V14.01,2013-02-25 15:55:00,
2013-02-25 10:00:00,25.3,23.0,30.40,East,86,1.0,2.0,91,0.01,,---,0.01,VWS V14.01,2013-02-25 16:00:00,
2013-02-25 10:05:00,26.0,24.0,30.40,NNW,338,0.0,4.0,92,0.01,,---,0.01,VWS V14.01,2013-02-25 16:05:00,
2013-02-25 10:10:00,26.5,24.5,30.40,NE,36,3.0,5.0,92,0.01,,---,0.01,VWS V14.01,2013-02-25 16:10:00,
2013-02-25 10:15:00,26.8,24.5,30.40,NNE,19,1.0,2.0,91,0.01,,---,0.01,VWS V14.01,2013-02-25 16:15:00,
2013-02-25 10:20:00,27.6,25.3,30.39,NNE,18,2.0,5.0,91,0.01,,---,0.01,VWS V14.01,2013-02-25 16:20:00,
2013-02-25 10:25:00,28.1,25.8,30.40,NNW,346,0.0,3.0,91,0.01,,---,0.01,VWS V14.01,2013-02-25 16:25:00,
2013-02-25 10:30:00,28.6,26.3,30.40,NNW,346,1.0,1.0,91,0.01,,---,0.01,VWS V14.01,2013-02-25 16:30:00,
2013-02-25 10:35:00,28.8,26.2,30.40,NNW,329,3.0,3.0,90,0.01,,---,0.01,VWS V14.01,2013-02-25 16:35:00,
2013-02-25 10:40:00,28.7,25.9,30.40,WNW,302,0.0,4.0,89,0.01,,---,0.01,VWS V14.01,2013-02-25 16:40:00,
2013-02-25 10:45:00,28.8,25.7,30.40,NW,305,3.0,4.0,88,0.01,,---,0.01,VWS V14.01,2013-02-25 16:45:00,
2013-02-25 10:50:00,28.3,24.7,30.40,NW,319,2.0,4.0,86,0.01,,---,0.01,VWS V14.01,2013-02-25 16:50:00,
2013-02-25 10:55:00,27.9,24.3,30.40,NW,325,2.0,4.0,86,0.01,,---,0.01,VWS V14.01,2013-02-25 16:55:00,
2013-02-25 11:00:00,27.7,24.1,30.40,NNE,13,3.0,5.0,86,0.00,,---,0.01,VWS V14.01,2013-02-25 17:00:00,
2013-02-25 11:05:00,27.4,23.8,30.40,NW,325,3.0,5.0,86,0.00,,---,0.01,VWS V14.01,2013-02-25 17:05:00,
2013-02-25 11:10:00,27.0,23.4,30.40,NNW,340,3.0,6.0,86,0.00,,---,0.01,VWS V14.01,2013-02-25 17:10:00,
2013-02-25 11:15:00,26.8,23.2,30.40,NW,317,2.0,7.0,86,0.00,,---,0.01,VWS V14.01,2013-02-25 17:15:00,
2013-02-25 11:20:00,27.1,23.8,30.40,NNW,329,0.0,2.0,87,0.00,,---,0.01,VWS V14.01,2013-02-25 17:20:00,
2013-02-25 11:25:00,27.5,24.1,30.39,NW,316,1.0,4.0,87,0.00,,---,0.01,VWS V14.01,2013-02-25 17:25:00,
2013-02-25 11:30:00,27.7,24.3,30.39,North,5,2.0,3.0,87,0.00,,---,0.01,VWS V14.01,2013-02-25 17:30:00,
2013-02-25 11:35:00,28.0,24.6,30.39,North,360,1.0,4.0,87,0.00,,---,0.01,VWS V14.01,2013-02-25 17:35:00,
2013-02-25 11:40:00,28.5,25.1,30.39,North,355,2.0,4.0,87,0.00,,---,0.01,VWS V14.01,2013-02-25 17:40:00,
2013-02-25 11:45:00,29.0,25.6,30.39,North,355,3.0,4.0,87,0.00,,---,0.01,VWS V14.01,2013-02-25 17:45:00,
2013-02-25 11:50:00,29.8,26.1,30.38,North,10,3.0,3.0,86,0.00,,---,0.01,VWS V14.01,2013-02-25 17:50:00,
2013-02-25 11:55:00,30.4,26.4,30.37,NNE,23,2.0,4.0,85,0.00,,---,0.01,VWS V14.01,2013-02-25 17:55:00,
2013-02-25 12:00:00,30.8,26.5,30.36,North,350,2.0,3.0,84,0.00,,---,0.01,VWS V14.01,2013-02-25 18:00:00,
2013-02-25 12:05:00,31.2,26.6,30.36,North,360,3.0,5.0,83,0.00,,---,0.01,VWS V14.01,2013-02-25 18:05:00,
2013-02-25 12:10:00,31.6,27.0,30.34,North,9,3.0,4.0,83,0.00,,---,0.01,VWS V14.01,2013-02-25 18:10:00,
2013-02-25 12:15:00,32.1,27.2,30.34,NNW,338,2.0,3.0,82,0.00,,---,0.01,VWS V14.01,2013-02-25 18:15:00,
2013-02-25 12:20:00,32.4,27.5,30.33,NE,39,1.0,3.0,82,0.00,,---,0.01,VWS V14.01,2013-02-25 18:20:00,
2013-02-25 12:25:00,32.5,27.6,30.33,NNE,22,3.0,4.0,82,0.00,,---,0.01,VWS V14.01,2013-02-25 18:25:00,
2013-02-25 12:30:00,32.7,28.1,30.33,NE,40,4.0,5.0,83,0.00,,---,0.01,VWS V14.01,2013-02-25 18:30:00,
2013-02-25 12:35:00,33.1,28.2,30.33,NNE,29,2.0,4.0,82,0.00,,---,0.01,VWS V14.01,2013-02-25 18:35:00,
2013-02-25 12:40:00,33.7,28.2,30.31,NNE,24,3.0,4.0,80,0.00,,---,0.01,VWS V14.01,2013-02-25 18:40:00,
2013-02-25 12:45:00,34.3,28.5,30.31,North,11,4.0,6.0,79,0.00,,---,0.01,VWS V14.01,2013-02-25 18:45:00,
2013-02-25 12:50:00,34.4,28.3,30.30,NNE,26,4.0,6.0,78,0.00,,---,0.01,VWS V14.01,2013-02-25 18:50:00,
2013-02-25 12:55:00,34.8,28.3,30.30,NNE,13,2.0,5.0,77,0.00,,---,0.01,VWS V14.01,2013-02-25 18:55:00,
2013-02-25 13:00:00,35.1,28.6,30.29,NNE,33,3.0,3.0,77,0.00,,---,0.01,VWS V14.01,2013-02-25 19:00:00,
2013-02-25 13:05:00,34.6,28.1,30.29,NNE,18,3.0,5.0,77,0.00,,---,0.01,VWS V14.01,2013-02-25 19:05:00,
2013-02-25 13:10:00,34.4,28.0,30.29,ENE,59,6.0,10.0,77,0.00,,---,0.01,VWS V14.01,2013-02-25 19:10:00,
2013-02-25 13:15:00,34.0,27.6,30.28,NE,54,4.0,5.0,77,0.00,,---,0.01,VWS V14.01,2013-02-25 19:15:00,
2013-02-25 13:20:00,33.7,27.6,30.28,ENE,67,5.0,7.0,78,0.00,,---,0.01,VWS V14.01,2013-02-25 19:20:00,
2013-02-25 13:25:00,33.5,27.4,30.28,NNE,26,6.0,7.0,78,0.00,,---,0.01,VWS V14.01,2013-02-25 19:25:00,
2013-02-25 13:30:00,33.2,27.1,30.29,NE,53,6.0,10.0,78,0.00,,---,0.01,VWS V14.01,2013-02-25 19:30:00,
2013-02-25 13:35:00,33.0,26.6,30.29,ENE,59,5.0,7.0,77,0.00,,---,0.01,VWS V14.01,2013-02-25 19:35:00,
2013-02-25 13:40:00,33.2,27.4,30.29,North,5,4.0,4.0,79,0.00,,---,0.01,VWS V14.01,2013-02-25 19:40:00,
2013-02-25 13:45:00,33.4,27.3,30.29,NE,36,5.0,10.0,78,0.00,,---,0.01,VWS V14.01,2013-02-25 19:45:00,
2013-02-25 13:50:00,33.5,27.4,30.28,NNW,341,2.0,9.0,78,0.00,,---,0.01,VWS V14.01,2013-02-25 19:50:00,
2013-02-25 13:55:00,33.7,27.3,30.28,NNE,25,6.0,10.0,77,0.00,,---,0.01,VWS V14.01,2013-02-25 19:55:00,
2013-02-25 14:00:00,33.8,27.4,30.28,NNW,339,1.0,3.0,77,0.00,,---,0.01,VWS V14.01,2013-02-25 20:00:00,
2013-02-25 14:05:00,33.6,27.2,30.28,NE,48,6.0,11.0,77,0.00,,---,0.01,VWS V14.01,2013-02-25 20:05:00,
2013-02-25 14:10:00,33.2,27.1,30.29,NNE,26,5.0,6.0,78,0.00,,---,0.01,VWS V14.01,2013-02-25 20:10:00,
2013-02-25 14:15:00,33.0,26.9,30.29,NNE,21,3.0,6.0,78,0.00,,---,0.01,VWS V14.01,2013-02-25 20:15:00,
2013-02-25 14:20:00,32.9,27.1,30.29,NNE,29,9.0,9.0,79,0.00,,---,0.01,VWS V14.01,2013-02-25 20:20:00,
2013-02-25 14:25:00,32.7,26.9,30.29,NNE,28,4.0,10.0,79,0.00,,---,0.01,VWS V14.01,2013-02-25 20:25:00,
2013-02-25 14:30:00,32.7,26.9,30.29,NW,316,5.0,7.0,79,0.00,,---,0.01,VWS V14.01,2013-02-25 20:30:00,
2013-02-25 14:35:00,32.9,26.8,30.29,North,9,2.0,6.0,78,0.00,,---,0.01,VWS V14.01,2013-02-25 20:35:00,
2013-02-25 14:40:00,33.1,27.0,30.28,NNW,337,5.0,9.0,78,0.00,,---,0.01,VWS V14.01,2013-02-25 20:40:00,
2013-02-25 14:45:00,33.2,27.1,30.29,ENE,63,0.0,2.0,78,0.00,,---,0.01,VWS V14.01,2013-02-25 20:45:00,
2013-02-25 14:50:00,33.0,26.9,30.29,North,355,3.0,3.0,78,0.00,,---,0.01,VWS V14.01,2013-02-25 20:50:00,
2013-02-25 14:55:00,32.9,26.8,30.29,NNE,20,5.0,5.0,78,0.00,,---,0.01,VWS V14.01,2013-02-25 20:55:00,
2013-02-25 15:00:00,32.9,26.5,30.29,NNE,22,5.0,5.0,77,0.00,,---,0.01,VWS V14.01,2013-02-25 21:00:00,
2013-02-25 15:05:00,32.8,26.4,30.29,North,5,1.0,7.0,77,0.00,,---,0.01,VWS V14.01,2013-02-25 21:05:00,
2013-02-25 15:10:00,32.7,26.3,30.29,ENE,68,9.0,9.0,77,0.00,,---,0.01,VWS V14.01,2013-02-25 21:10:00,
2013-02-25 15:15:00,32.3,26.2,30.30,NE,55,4.0,5.0,78,0.00,,---,0.01,VWS V14.01,2013-02-25 21:15:00,
2013-02-25 15:20:00,31.8,25.7,30.30,North,5,6.0,7.0,78,0.00,,---,0.01,VWS V14.01,2013-02-25 21:20:00,
2013-02-25 15:25:00,31.5,25.8,30.29,North,355,4.0,8.0,79,0.00,,---,0.01,VWS V14.01,2013-02-25 21:25:00,
2013-02-25 15:30:00,31.3,25.6,30.29,NE,37,4.0,5.0,79,0.00,,---,0.01,VWS V14.01,2013-02-25 21:30:00,
2013-02-25 15:35:00,31.4,26.0,30.29,North,5,2.0,4.0,80,0.00,,---,0.01,VWS V14.01,2013-02-25 21:35:00,
2013-02-25 15:40:00,31.5,25.8,30.29,NNE,23,2.0,4.0,79,0.00,,---,0.01,VWS V14.01,2013-02-25 21:40:00,
2013-02-25 15:45:00,31.8,26.0,30.29,NE,35,3.0,4.0,79,0.00,,---,0.01,VWS V14.01,2013-02-25 21:45:00,
2013-02-25 15:50:00,32.0,26.2,30.29,NNE,22,1.0,3.0,79,0.00,,---,0.01,VWS V14.01,2013-02-25 21:50:00,
2013-02-25 15:55:00,31.9,26.1,30.29,NNE,15,5.0,6.0,79,0.00,,---,0.01,VWS V14.01,2013-02-25 21:55:00,
2013-02-25 16:00:00,31.7,25.9,30.29,NNE,32,6.0,6.0,79,0.00,,---,0.01,VWS V14.01,2013-02-25 22:00:00,
2013-02-25 16:05:00,31.2,25.8,30.28,NE,46,6.0,9.0,80,0.00,,---,0.01,VWS V14.01,2013-02-25 22:05:00,
2013-02-25 16:10:00,31.0,25.6,30.28,NE,44,3.0,6.0,80,0.00,,---,0.01,VWS V14.01,2013-02-25 22:10:00,
2013-02-25 16:15:00,30.8,25.7,30.28,ENE,59,3.0,6.0,81,0.00,,---,0.01,VWS V14.01,2013-02-25 22:15:00,
2013-02-25 16:20:00,30.8,25.7,30.28,ENE,65,4.0,5.0,81,0.00,,---,0.01,VWS V14.01,2013-02-25 22:20:00,
2013-02-25 16:25:00,30.6,25.5,30.28,NE,41,6.0,6.0,81,0.00,,---,0.01,VWS V14.01,2013-02-25 22:25:00,
2013-02-25 16:30:00,30.4,25.6,30.29,ENE,60,3.0,6.0,82,0.00,,---,0.01,VWS V14.01,2013-02-25 22:30:00,
2013-02-25 16:35:00,30.3,25.5,30.29,NE,50,5.0,7.0,82,0.00,,---,0.01,VWS V14.01,2013-02-25 22:35:00,
2013-02-25 16:40:00,30.3,25.8,30.29,NNW,344,4.0,4.0,83,0.00,,---,0.01,VWS V14.01,2013-02-25 22:40:00,
2013-02-25 16:45:00,30.4,25.9,30.29,NW,321,5.0,6.0,83,0.00,,---,0.01,VWS V14.01,2013-02-25 22:45:00,
2013-02-25 16:50:00,30.3,25.5,30.29,NE,47,4.0,5.0,82,0.00,,---,0.01,VWS V14.01,2013-02-25 22:50:00,
2013-02-25 16:55:00,30.2,25.4,30.29,North,5,3.0,4.0,82,0.00,,---,0.01,VWS V14.01,2013-02-25 22:55:00,
2013-02-25 17:00:00,30.1,25.3,30.29,NNE,25,2.0,4.0,82,0.00,,---,0.01,VWS V14.01,2013-02-25 23:00:00,
2013-02-25 17:05:00,29.8,25.0,30.29,NE,46,2.0,3.0,82,0.00,,---,0.01,VWS V14.01,2013-02-25 23:05:00,
2013-02-25 17:10:00,29.5,25.0,30.29,NE,44,2.0,4.0,83,0.00,,---,0.01,VWS V14.01,2013-02-25 23:10:00,
2013-02-25 17:15:00,29.3,24.8,30.30,NE,46,4.0,9.0,83,0.00,,---,0.01,VWS V14.01,2013-02-25 23:15:00,
2013-02-25 17:20:00,29.0,24.5,30.30,NNE,19,0.0,5.0,83,0.00,,---,0.01,VWS V14.01,2013-02-25 23:20:00,
2013-02-25 17:25:00,28.8,24.6,30.30,NE,35,2.0,4.0,84,0.00,,---,0.01,VWS V14.01,2013-02-25 23:25:00,
2013-02-25 17:30:00,28.8,24.6,30.30,North,360,1.0,5.0,84,0.00,,---,0.01,VWS V14.01,2013-02-25 23:30:00,
2013-02-25 17:35:00,28.5,24.3,30.30,North,349,6.0,6.0,84,0.00,,---,0.01,VWS V14.01,2013-02-25 23:35:00,
2013-02-25 17:40:00,28.3,24.1,30.30,NE,34,1.0,7.0,84,0.00,,---,0.01,VWS V14.01,2013-02-25 23:40:00,
2013-02-25 17:45:00,28.2,24.3,30.30,NNE,28,2.0,5.0,85,0.00,,---,0.01,VWS V14.01,2013-02-25 23:45:00,
2013-02-25 17:50:00,28.1,24.2,30.30,North,355,2.0,5.0,85,0.00,,---,0.01,VWS V14.01,2013-02-25 23:50:00,
2013-02-25 17:55:00,28.1,24.5,30.29,ENE,59,2.0,6.0,86,0.00,,---,0.01,VWS V14.01,2013-02-25 23:55:00,
2013-02-25 18:00:00,28.1,24.5,30.29,NE,38,4.0,6.0,86,0.00,,---,0.01,VWS V14.01,2013-02-26 00:00:00,
2013-02-25 18:05:00,28.0,24.4,30.30,NNE,32,5.0,5.0,86,0.00,,---,0.01,VWS V14.01,2013-02-26 00:05:00,
2013-02-25 18:10:00,27.9,24.3,30.30,NE,45,3.0,3.0,86,0.00,,---,0.01,VWS V14.01,2013-02-26 00:10:00,
2013-02-25 18:15:00,27.8,24.2,30.30,NE,35,2.0,7.0,86,0.00,,---,0.01,VWS V14.01,2013-02-26 00:15:00,
2013-02-25 18:20:00,27.7,24.1,30.30,NNE,15,8.0,9.0,86,0.00,,---,0.01,VWS V14.01,2013-02-26 00:20:00,
2013-02-25 18:25:00,27.5,23.9,30.30,NE,39,3.0,3.0,86,0.00,,---,0.01,VWS V14.01,2013-02-26 00:25:00,
2013-02-25 18:30:00,27.4,23.8,30.30,NNW,334,0.0,3.0,86,0.00,,---,0.01,VWS V14.01,2013-02-26 00:30:00,
2013-02-25 18:35:00,27.4,24.0,30.30,NE,34,2.0,6.0,87,0.00,,---,0.01,VWS V14.01,2013-02-26 00:35:00,
2013-02-25 18:40:00,27.3,23.7,30.30,North,349,4.0,5.0,86,0.00,,---,0.01,VWS V14.01,2013-02-26 00:40:00,
2013-02-25 18:45:00,27.2,23.9,30.30,North,360,2.0,4.0,87,0.00,,---,0.01,VWS V14.01,2013-02-26 00:45:00,
2013-02-25 18:50:00,27.2,23.9,30.30,North,9,2.0,3.0,87,0.00,,---,0.01,VWS V14.01,2013-02-26 00:50:00,
2013-02-25 18:55:00,27.2,23.9,30.29,NNE,28,1.0,2.0,87,0.00,,---,0.01,VWS V14.01,2013-02-26 00:55:00,
2013-02-25 19:00:00,27.1,23.8,30.29,NNW,344,0.0,2.0,87,0.00,,---,0.01,VWS V14.01,2013-02-26 01:00:00,
2013-02-25 19:05:00,27.0,23.6,30.31,NNW,334,3.0,4.0,87,0.00,,---,0.01,VWS V14.01,2013-02-26 01:05:00,
2013-02-25 19:10:00,27.0,23.6,30.31,NE,36,1.0,3.0,87,0.00,,---,0.01,VWS V14.01,2013-02-26 01:10:00,
2013-02-25 19:15:00,26.9,23.6,30.31,ENE,63,4.0,6.0,87,0.00,,---,0.01,VWS V14.01,2013-02-26 01:15:00,
2013-02-25 19:20:00,26.8,23.5,30.31,NNE,26,2.0,3.0,87,0.00,,---,0.01,VWS V14.01,2013-02-26 01:20:00,
2013-02-25 19:25:00,26.7,23.4,30.31,NNE,18,2.0,4.0,87,0.00,,---,0.01,VWS V14.01,2013-02-26 01:25:00,
2013-02-25 19:30:00,26.7,23.6,30.31,NW,304,1.0,5.0,88,0.00,,---,0.01,VWS V14.01,2013-02-26 01:30:00,
2013-02-25 19:35:00,26.6,23.3,30.30,NNW,346,3.0,3.0,87,0.00,,---,0.01,VWS V14.01,2013-02-26 01:35:00,
2013-02-25 19:40:00,26.6,23.3,30.30,North,5,5.0,5.0,87,0.00,,---,0.01,VWS V14.01,2013-02-26 01:40:00,
2013-02-25 19:45:00,26.6,23.5,30.29,North,11,4.0,4.0,88,0.00,,---,0.01,VWS V14.01,2013-02-26 01:45:00,
2013-02-25 19:50:00,26.6,23.5,30.29,NE,49,4.0,4.0,88,0.00,,---,0.01,VWS V14.01,2013-02-26 01:50:00,
2013-02-25 19:55:00,26.6,23.5,30.29,NE,43,1.0,2.0,88,0.00,,---,0.01,VWS V14.01,2013-02-26 01:55:00,
2013-02-25 20:00:00,26.6,23.5,30.29,North,360,1.0,4.0,88,0.00,,---,0.01,VWS V14.01,2013-02-26 02:00:00,
2013-02-25 20:05:00,26.6,23.5,30.28,West,277,2.0,5.0,88,0.00,,---,0.01,VWS V14.01,2013-02-26 02:05:00,
2013-02-25 20:10:00,26.7,23.6,30.27,NNW,331,1.0,2.0,88,0.00,,---,0.01,VWS V14.01,2013-02-26 02:10:00,
2013-02-25 20:15:00,26.7,23.6,30.27,NE,38,3.0,10.0,88,0.00,,---,0.01,VWS V14.01,2013-02-26 02:15:00,
2013-02-25 20:20:00,26.8,23.7,30.27,North,5,1.0,1.0,88,0.00,,---,0.01,VWS V14.01,2013-02-26 02:20:00,
2013-02-25 20:25:00,26.8,23.7,30.26,NE,46,4.0,4.0,88,0.00,,---,0.01,VWS V14.01,2013-02-26 02:25:00,
2013-02-25 20:30:00,26.9,23.8,30.26,North,351,2.0,3.0,88,0.00,,---,0.01,VWS V14.01,2013-02-26 02:30:00,
2013-02-25 20:35:00,26.9,23.8,30.25,NW,317,1.0,7.0,88,0.00,,---,0.01,VWS V14.01,2013-02-26 02:35:00,
2013-02-25 20:40:00,26.9,23.8,30.25,North,9,2.0,4.0,88,0.00,,---,0.01,VWS V14.01,2013-02-26 02:40:00,
2013-02-25 20:45:00,26.9,23.8,30.26,North,5,0.0,3.0,88,0.00,,---,0.01,VWS V14.01,2013-02-26 02:45:00,
2013-02-25 20:50:00,26.9,23.8,30.25,NE,36,3.0,4.0,88,0.00,,---,0.01,VWS V14.01,2013-02-26 02:50:00,
2013-02-25 20:55:00,27.0,23.9,30.25,NNE,23,2.0,3.0,88,0.00,,---,0.01,VWS V14.01,2013-02-26 02:55:00,
2013-02-25 21:00:00,27.0,23.9,30.25,North,355,5.0,5.0,88,0.00,,---,0.01,VWS V14.01,2013-02-26 03:00:00,
2013-02-25 21:05:00,27.0,23.9,30.23,North,5,3.0,5.0,88,0.00,,---,0.01,VWS V14.01,2013-02-26 03:05:00,
2013-02-25 21:10:00,27.0,24.2,30.23,NNE,22,4.0,5.0,89,0.00,,---,0.01,VWS V14.01,2013-02-26 03:10:00,
2013-02-25 21:15:00,27.0,24.2,30.23,East,84,5.0,10.0,89,0.00,,---,0.01,VWS V14.01,2013-02-26 03:15:00,
2013-02-25 21:20:00,27.0,24.2,30.23,North,9,1.0,5.0,89,0.00,,---,0.01,VWS V14.01,2013-02-26 03:20:00,
2013-02-25 21:25:00,27.1,24.3,30.23,NE,41,2.0,4.0,89,0.00,,---,0.01,VWS V14.01,2013-02-26 03:25:00,
2013-02-25 21:30:00,27.1,24.3,30.23,NNE,13,5.0,9.0,89,0.00,,---,0.01,VWS V14.01,2013-02-26 03:30:00,
2013-02-25 21:35:00,27.1,24.3,30.23,North,360,2.0,6.0,89,0.00,,---,0.01,VWS V14.01,2013-02-26 03:35:00,
2013-02-25 21:40:00,27.0,24.2,30.22,NNE,33,2.0,4.0,89,0.00,,---,0.01,VWS V14.01,2013-02-26 03:40:00,
2013-02-25 21:45:00,26.9,24.1,30.22,NNE,26,7.0,10.0,89,0.00,,---,0.01,VWS V14.01,2013-02-26 03:45:00,
2013-02-25 21:50:00,26.7,23.9,30.22,NNE,30,5.0,6.0,89,0.00,,---,0.01,VWS V14.01,2013-02-26 03:50:00,
2013-02-25 21:55:00,26.6,23.8,30.23,NE,42,6.0,10.0,89,0.00,,---,0.01,VWS V14.01,2013-02-26 03:55:00,
2013-02-25 22:00:00,26.5,23.7,30.23,NE,42,5.0,5.0,89,0.00,,---,0.01,VWS V14.01,2013-02-26 04:00:00,
2013-02-25 22:05:00,26.3,23.5,30.23,NE,51,5.0,5.0,89,0.00,,---,0.01,VWS V14.01,2013-02-26 04:05:00,
2013-02-25 22:10:00,26.2,23.4,30.23,NE,53,6.0,9.0,89,0.00,,---,0.01,VWS V14.01,2013-02-26 04:10:00,
2013-02-25 22:15:00,26.1,23.3,30.23,NE,49,6.0,9.0,89,0.00,,---,0.01,VWS V14.01,2013-02-26 04:15:00,
2013-02-25 22:20:00,26.1,23.3,30.23,NNE,33,11.0,12.0,89,0.00,,---,0.01,VWS V14.01,2013-02-26 04:20:00,
2013-02-25 22:25:00,26.0,23.2,30.23,NE,40,3.0,9.0,89,0.00,,---,0.01,VWS V14.01,2013-02-26 04:25:00,
2013-02-25 22:30:00,25.8,23.0,30.23,NE,37,5.0,14.0,89,0.00,,---,0.01,VWS V14.01,2013-02-26 04:30:00,
2013-02-25 22:35:00,25.7,23.2,30.23,NE,48,8.0,12.0,90,0.00,,---,0.01,VWS V14.01,2013-02-26 04:35:00,
2013-02-25 22:40:00,25.6,23.1,30.23,ENE,78,11.0,14.0,90,0.00,,---,0.01,VWS V14.01,2013-02-26 04:40:00,
2013-02-25 22:45:00,25.4,22.9,30.23,NE,56,6.0,12.0,90,0.00,,---,0.01,VWS V14.01,2013-02-26 04:45:00,
2013-02-25 22:50:00,25.2,22.7,30.23,NE,46,10.0,11.0,90,0.00,,---,0.01,VWS V14.01,2013-02-26 04:50:00,
2013-02-25 22:55:00,24.8,22.3,30.23,NE,34,10.0,10.0,90,0.00,,---,0.01,VWS V14.01,2013-02-26 04:55:00,
2013-02-25 23:00:00,24.7,22.2,30.23,NNE,26,7.0,11.0,90,0.00,,---,0.01,VWS V14.01,2013-02-26 05:00:00,
2013-02-25 23:05:00,24.6,22.1,30.24,ENE,58,7.0,7.0,90,0.00,,---,0.01,VWS V14.01,2013-02-26 05:05:00,
2013-02-25 23:10:00,24.5,22.0,30.22,ENE,70,7.0,12.0,90,0.00,,---,0.01,VWS V14.01,2013-02-26 05:10:00,
2013-02-25 23:15:00,24.4,21.9,30.23,NE,55,7.0,13.0,90,0.00,,---,0.01,VWS V14.01,2013-02-26 05:15:00,
2013-02-25 23:20:00,24.0,21.8,30.24,NE,38,14.0,15.0,91,0.00,,---,0.01,VWS V14.01,2013-02-26 05:20:00,
2013-02-25 23:25:00,23.9,21.4,30.24,ENE,69,6.0,10.0,90,0.00,,---,0.01,VWS V14.01,2013-02-26 05:25:00,
2013-02-25 23:30:00,23.7,21.5,30.24,NE,34,10.0,13.0,91,0.00,,---,0.01,VWS V14.01,2013-02-26 05:30:00,
2013-02-25 23:35:00,23.6,21.4,30.24,NE,40,10.0,11.0,91,0.00,,---,0.01,VWS V14.01,2013-02-26 05:35:00,
2013-02-25 23:40:00,23.6,21.4,30.25,NE,34,13.0,13.0,91,0.00,,---,0.01,VWS V14.01,2013-02-26 05:40:00,
2013-02-25 23:45:00,23.6,21.4,30.24,ENE,63,7.0,10.0,91,0.00,,---,0.01,VWS V14.01,2013-02-26 05:45:00,
2013-02-25 23:50:00,23.5,21.3,30.25,ENE,75,9.0,9.0,91,0.00,,---,0.01,VWS V14.01,2013-02-26 05:50:00,
2013-02-25 23:55:00,23.4,21.2,30.25,NE,42,4.0,12.0,91,0.00,,---,0.01,VWS V14.01,2013-02-26 05:55:00,